Regional Weather Roundup
Issued by NWS

Home | Current Version | Previous Version | Graphics & Text | Print | Product List | Glossary On
Versions: 1 2 3 4 5 6 7 8 9 10 11 12 13 14 15 16 17 18 19 20 21 22 23 24 25 26 27 28 29 30 31 32 33 34 35 36 37 38 39 40 41 42 43 44 45 46 47 48 49 50
000
ASUS43 KBIS 190702
RWRND

NORTH DAKOTA REGIONAL WEATHER ROUNDUP
NATIONAL WEATHER SERVICE BISMARCK ND
100 AM CST FRI JAN 19 2018

NOTE: "FAIR" INDICATES FEW OR NO CLOUDS BELOW 12,000 FEET WITH NO
SIGNIFICANT WEATHER AND/OR OBSTRUCTIONS TO VISIBILITY.


NDZ001>003-009>011-017-190800-
NORTHWEST NORTH DAKOTA

CITY           SKY/WX    TMP DP  RH WIND       PRES   REMARKS
WILLISTON      CLEAR     37  21  52 SW8       29.56F
MINOT          CLOUDY    41  30  65 SW15      29.50F
MINOT AFB      CLOUDY    39  31  72 W16       29.48F
$$

NDZ018>021-031>035-040>046-190800-
SOUTHWEST NORTH DAKOTA

CITY           SKY/WX    TMP DP  RH WIND       PRES   REMARKS
BISMARCK       CLOUDY    30  26  85 CALM      29.58F
DICKINSON      PTCLDY    36  27  69 W12       29.59R
GARRISON         N/A     29  25  85 SW5       29.56R
HETTINGER ARPT MOCLDY    36  26  67 CALM      29.62F
$$

NDZ004>008-012>016-024-026-027-054-190800-
NORTHEAST NORTH DAKOTA

CITY           SKY/WX    TMP DP  RH WIND       PRES   REMARKS
GRAND FORKS    FAIR      28  25  88 S14       29.50F WCI  17
DEVILS LAKE    FAIR      32  27  81 SW13      29.51F
$$

NDZ022-023-025-028>030-036>039-047>053-190800-
SOUTHEAST NORTH DAKOTA

CITY           SKY/WX    TMP DP  RH WIND       PRES   REMARKS
FARGO          FAIR      32  26  78 S12         N/A
JAMESTOWN      CLOUDY    39  29  67 SW12      29.52F
$$




USA.gov is the U.S. government's official web portal to all federal, state and local government web resources and services.